Date String (YYYY-MM-DD hh:mm:ss) UTC,Instrument flags,absolute air pressure of the measurement (hPa),sample flow rate (lpm),inlet stack bypass flow (lpm),air temperature of the measurement (°C),ambient temperature measured by the external sensor (°C),aerosol sample conditioner tube jacket temperature (°C),OPC LED temperature (°C),internal box temperature (°C),relative humidity of the measurement (%),span deviation,mass concentration of particles derived from Lorenz-Mie calculation of OPC scattering (μg/m³),mass concentration of particles derived from Lorenz-Mie calculation of OPC scattering (μg/m³),mass concentration of particles derived from Lorenz-Mie calculation of OPC scattering (μg/m³)
DateTimeUTC,F1_M11,P_M11,Q1_M11,Q2_M11,T1_M11,T2_M11,T3_M11,T4_M11,T5_M11,U1_M11,ZSPAN_M11,X2_M11,X0_M11,X1_M11
2024-03-27 11:00:00,SystemResetWarning,0824.5,5.01,000.00,018.3,017.4,000.0,027.0,020.0,16.4,0000.0,0005.05,0009.30,0004.59
2024-03-27 11:01:00,SystemResetWarning,0824.5,5.00,000.00,018.3,017.4,000.0,027.1,020.0,16.4,0000.0,0005.07,0009.29,0004.64
2024-03-27 11:02:00,SystemResetWarning,0824.5,5.00,000.00,018.3,017.3,000.0,027.1,020.0,16.4,0000.0,0005.11,0009.87,0004.67
2024-03-27 11:03:00,SystemResetWarning,0824.5,4.99,000.00,018.3,017.2,000.0,027.1,020.0,16.3,-000.0,0005.11,0009.85,0004.67
2024-03-27 11:04:00,SystemResetWarning,0824.6,5.00,000.00,018.3,017.7,000.0,027.1,020.3,16.3,0000.1,0005.12,0009.65,0004.70
2024-03-27 11:05:00,SystemResetWarning,0824.7,5.01,000.00,018.5,018.5,000.0,027.2,020.8,16.1,0000.6,0005.17,0009.59,0004.76
2024-03-27 11:06:00,SystemResetWarning,0824.7,4.99,000.00,018.7,018.8,000.0,027.2,020.9,16.0,0000.3,0005.22,0009.23,0004.80
2024-03-27 11:07:00,SystemResetWarning,0824.7,5.00,000.00,018.7,018.6,000.0,027.2,020.7,15.9,0000.9,0005.26,0009.79,0004.82
2024-03-27 11:08:00,SystemResetWarning,0824.7,5.00,000.00,018.7,018.3,000.0,027.1,020.5,15.9,0001.5,0005.25,0009.76,0004.82
2024-03-27 11:09:00,SystemResetWarning,0824.7,4.99,000.00,018.6,018.1,000.0,027.1,020.3,16.0,0001.4,0005.22,0009.65,0004.80
2024-03-27 11:10:00,SystemResetWarning,0824.7,4.99,000.00,018.6,017.9,000.0,027.1,020.2,15.9,0001.0,0005.18,0009.50,0004.79
2024-03-27 11:11:00,SystemResetWarning,0824.7,5.01,000.00,018.5,017.7,000.0,027.1,020.2,15.9,0001.2,0005.16,0009.47,0004.76
2024-03-27 11:12:00,SystemResetWarning,0824.7,5.01,000.00,018.5,017.7,000.0,027.1,020.1,15.8,0001.4,0005.13,0009.43,0004.71
2024-03-27 11:13:00,SystemResetWarning,0824.7,5.00,000.00,018.4,017.6,000.0,027.1,020.1,15.5,0001.2,0005.01,0008.82,0004.59
2024-03-27 11:14:00,SystemResetWarning,0824.7,4.98,000.00,018.4,017.5,000.0,027.1,020.0,15.2,0001.5,0004.87,0008.65,0004.46
2024-03-27 11:15:00,SystemResetWarning,0824.7,4.99,000.00,018.4,017.5,000.0,027.1,020.0,15.1,0001.1,0004.70,0008.53,0004.30
2024-03-27 11:16:00,SystemResetWarning,0824.7,5.00,000.00,018.3,017.4,000.0,027.0,020.0,15.1,0000.0,0004.52,0008.26,0004.12
2024-03-27 11:17:00,SystemResetWarning,0824.7,5.00,000.00,018.3,017.4,000.0,027.0,020.0,15.0,0000.0,0004.35,0007.92,0003.95
2024-03-27 11:18:00,SystemResetWarning,0824.7,5.00,000.00,018.3,017.4,000.0,027.0,020.0,14.6,0000.0,0004.17,0007.23,0003.76
2024-03-27 11:19:00,SystemResetWarning,0824.7,5.00,000.00,018.3,017.4,000.0,027.0,020.0,14.4,0000.0,0004.00,0007.06,0003.56
2024-03-27 11:20:00,SystemResetWarning,0824.7,5.00,000.00,018.3,017.3,000.0,027.0,020.0,14.3,0000.0,0003.81,0006.73,0003.37
2024-03-27 11:21:00,SystemResetWarning,0824.8,5.01,000.00,018.3,017.3,000.0,027.0,020.0,14.3,0000.0,0003.61,0006.36,0003.18
2024-03-27 11:22:00,SystemResetWarning,0824.7,5.00,000.00,018.3,017.4,000.0,027.0,020.1,14.3,0000.0,0003.42,0005.99,0002.94
2024-03-27 11:23:00,SystemResetWarning,0824.9,5.00,000.00,018.4,018.1,000.0,027.1,020.5,14.6,0000.0,0003.30,0005.77,0002.72
2024-03-27 11:24:00,SystemResetWarning,0824.9,4.99,000.00,018.6,019.0,000.0,027.2,021.0,14.4,0000.0,0003.25,0005.63,0002.63
2024-03-27 11:25:00,SystemResetWarning,0824.9,4.99,000.00,018.8,018.9,000.0,027.2,021.0,14.4,0000.0,0003.30,0006.50,0002.64
2024-03-27 11:26:00,SystemResetWarning,0824.9,5.00,000.00,018.7,018.7,000.0,027.1,020.7,15.1,0000.0,0003.38,0007.50,0002.78
2024-03-27 11:27:00,SystemResetWarning,0824.9,5.00,000.00,018.7,018.4,000.0,027.1,020.5,15.0,0000.0,0003.43,0007.75,0002.92
2024-03-27 11:28:00,SystemResetWarning,0824.9,4.99,000.00,018.6,018.1,000.0,027.1,020.3,14.7,0000.0,0003.43,0007.73,0002.94
2024-03-27 11:29:00,SystemResetWarning,0824.9,5.00,000.00,018.6,017.9,000.0,027.1,020.2,14.6,0000.0,0003.42,0007.60,0002.94
2024-03-27 11:30:00,SystemResetWarning,0824.9,5.01,000.00,018.5,017.7,000.0,027.1,020.2,14.6,0000.0,0003.41,0007.48,0002.96
2024-03-27 11:31:00,SystemResetWarning,0824.9,5.00,000.00,018.5,017.6,000.0,027.1,020.1,15.1,0000.0,0003.46,0007.54,0003.06
2024-03-27 11:32:00,SystemResetWarning,0824.9,5.00,000.00,018.4,017.5,000.0,027.1,020.0,15.7,0000.0,0003.63,0007.77,0003.24
2024-03-27 11:33:00,SystemResetWarning,0824.9,5.00,000.00,018.4,017.4,000.0,027.1,020.0,15.7,0000.0,0003.82,0008.02,0003.41
2024-03-27 11:34:00,SystemResetWarning,0824.9,4.99,000.00,018.4,017.3,000.0,027.1,020.0,15.3,0000.0,0003.87,0008.06,0003.47
2024-03-27 11:35:00,SystemResetWarning,0824.9,5.00,000.00,018.3,017.2,000.0,027.1,020.0,15.1,0000.0,0003.88,0008.05,0003.49
2024-03-27 11:36:00,SystemResetWarning,0824.9,5.00,000.00,018.3,017.1,000.0,027.1,020.0,15.2,0000.0,0003.90,0007.95,0003.54
2024-03-27 11:37:00,SystemResetWarning,0824.9,5.02,000.00,018.3,017.1,000.0,027.1,020.0,15.2,0000.0,0003.89,0007.29,0003.54
2024-03-27 11:38:00,SystemResetWarning,0824.9,5.00,000.00,018.3,017.6,000.0,027.1,020.2,15.2,0000.0,0003.87,0005.91,0003.50
2024-03-27 11:39:00,SystemResetWarning,0824.9,4.99,000.00,018.5,018.5,000.0,027.2,020.8,15.3,0000.0,0003.93,0006.08,0003.54
2024-03-27 11:40:00,SystemResetWarning,0824.9,4.99,000.00,018.7,019.0,000.0,027.2,021.0,15.1,0000.0,0004.00,0006.28,0003.60
2024-03-27 11:41:00,SystemResetWarning,0824.9,5.00,000.00,018.8,018.8,000.0,027.2,020.9,14.8,0000.0,0004.07,0006.47,0003.66
2024-03-27 11:42:00,SystemResetWarning,0824.9,5.01,000.00,018.8,018.6,000.0,027.2,020.7,14.7,0000.0,0004.12,0006.57,0003.68
2024-03-27 11:43:00,SystemResetWarning,0824.9,5.00,000.00,018.7,018.4,000.0,027.2,020.6,14.7,0000.0,0004.03,0006.27,0003.61
2024-03-27 11:44:00,SystemResetWarning,0824.9,5.01,000.00,018.7,018.3,000.0,027.2,020.4,14.6,0000.0,0003.89,0005.91,0003.48
2024-03-27 11:45:00,SystemResetWarning,0824.9,5.01,000.00,018.7,018.1,000.0,027.2,020.4,14.6,0000.0,0003.81,0005.73,0003.40
2024-03-27 11:46:00,SystemResetWarning,0824.9,4.99,000.00,018.6,018.0,000.0,027.1,020.3,14.5,0000.0,0003.79,0005.81,0003.38
2024-03-27 11:47:00,SystemResetWarning,0824.9,4.99,000.00,018.6,017.9,000.0,027.1,020.3,14.5,0000.0,0003.71,0005.63,0003.33
2024-03-27 11:48:00,SystemResetWarning,0824.9,5.00,000.00,018.6,017.8,000.0,027.1,020.3,14.3,0000.0,0003.65,0005.48,0003.27
2024-03-27 11:49:00,SystemResetWarning,0824.9,5.01,000.00,018.5,017.8,000.0,027.1,020.2,14.4,0000.0,0003.59,0005.32,0003.22
2024-03-27 11:50:00,SystemResetWarning,0824.9,5.01,000.00,018.5,017.7,000.0,027.1,020.2,14.4,0000.0,0003.49,0005.11,0003.15
2024-03-27 11:51:00,SystemResetWarning,0825.0,4.99,000.00,018.5,017.7,000.0,027.1,020.1,14.5,0000.0,0003.41,0004.95,0003.05
2024-03-27 11:52:00,SystemResetWarning,0825.0,4.99,000.00,018.4,017.6,000.0,027.1,020.1,14.5,0000.0,0003.36,0004.80,0002.95
2024-03-27 11:53:00,SystemResetWarning,0825.0,5.00,000.00,018.4,017.6,000.0,027.1,020.1,14.6,0000.0,0003.32,0004.75,0002.91
2024-03-27 11:54:00,SystemResetWarning,0825.0,5.00,000.00,018.4,017.6,000.0,027.1,020.1,14.7,0000.0,0003.30,0004.83,0002.88
2024-03-27 11:55:00,SystemResetWarning,0825.0,5.01,000.00,018.4,017.5,000.0,027.0,020.0,15.3,0000.0,0003.31,0004.79,0002.95
2024-03-27 11:56:00,SystemResetWarning,0825.1,5.01,000.00,018.3,017.4,000.0,027.0,020.0,15.8,0000.0,0003.42,0005.01,0003.10
2024-03-27 11:57:00,SystemResetWarning,0825.1,5.01,000.00,018.3,017.4,000.0,027.1,020.0,16.0,0000.0,0003.56,0005.28,0003.21
2024-03-27 11:58:00,SystemResetWarning,0825.1,5.01,000.00,018.3,017.3,000.0,027.1,020.0,15.9,0000.0,0003.70,0005.59,0003.32
2024-03-27 11:59:00,SystemResetWarning,0825.1,5.00,000.00,018.3,017.2,000.0,027.1,020.0,15.9,0000.0,0003.83,0006.22,0003.42
